CW0101 Weather Reports


Display with metric or nautical units.
time (UTC)temp
F
wind
direction
speed
MPH
gust
MPH
rain 1hr
in
rain 24hr
in
rain mn
in
humidity
%
barometer
mb
20260906143643 72 158 7.0 9.0 0.00 0.00 0.00 84 1021.6
20260906143141 72 155 6.0 8.0 0.00 0.00 0.00 85 1021.6
20260906142639 71 157 4.0 7.0 0.00 0.00 0.00 86 1021.6
20260906142135 71 168 3.0 7.0 0.00 0.00 0.00 87 1021.5
20260906141633 70 158 10.0 10.0 0.00 0.00 0.00 88 1021.4
20260906141129 0 160 7.0 8.0 0.00 0.00 0.00 88 1021.3
20260906140628 0 221 6.0 7.0 0.00 0.00 0.00 91 1021.5
20260906140123 70 169 4.0 5.0 0.00 0.00 0.00 94 1021.5
20260906135620 69 158 8.0 9.0 0.00 0.00 0.00 94 1021.9
20260906135116 69 219 0.0 6.0 0.00 0.00 0.00 95 1021.5
20260906134612 0 200 2.0 8.0 0.00 0.00 0.00 97 1021.6
20260906134107 0 187 4.0 10.0 0.00 0.00 0.00 97 1021.5
20260906133603 0 160 6.0 7.0 0.00 0.00 0.00 97 1021.5
20260906133057 68 165 4.0 13.0 0.00 0.00 0.00 96 1021.5
20260906132552 68 158 9.0 10.0 0.00 0.00 0.00 96 1021.2
20260906132048 0 180 3.0 6.0 0.00 0.00 0.00 95 1021.3
20260906131543 69 167 2.0 5.0 0.00 0.00 0.00 95 1021.3
20260906131038 0 159 5.0 7.0 0.00 0.00 0.00 97 1020.9
20260906130538 0 116 3.0 6.0 0.00 0.00 0.00 98 1020.7
20260906130033 0 275 1.0 5.0 0.00 0.00 0.00 99 1020.9
20260906125531 0 125 3.0 3.0 0.00 0.00 0.00 99 1021.0
20260906125031 0 174 2.0 2.0 0.00 0.00 0.00 99 1020.8
20260906124526 0 151 3.0 4.0 0.00 0.00 0.00 99 1021.0
20260906124021 0 131 3.0 5.0 0.00 0.00 0.00 99 1021.1
20260906123520 66 132 0.0 3.0 0.00 0.00 0.00 99 1020.9
20260906123015 0 129 3.0 4.0 0.00 0.00 0.00 99 1020.7
20260906122509 0 133 2.0 3.0 0.00 0.00 0.00 99 1020.7
20260906122006 0 171 0.0 3.0 0.00 0.00 0.00 99 1020.6
20260906121502 0 172 2.0 4.0 0.00 0.00 0.00 99 1020.7
20260906120958 0 166 3.0 5.0 0.00 0.00 0.00 99 1020.6
20260906120453 0 188 3.0 4.0 0.00 0.00 0.00 99 1020.5
20260906115949 0 110 2.0 4.0 0.00 0.00 0.00 99 1020.6
20260906115444 0 135 4.0 5.0 0.00 0.00 0.00 99 1020.6
20260906114944 0 110 2.0 4.0 0.00 0.00 0.00 99 1020.6
20260906114438 0 139 3.0 3.0 0.00 0.00 0.00 99 1020.6
20260906113935 0 133 2.0 3.0 0.00 0.00 0.00 99 1020.5
20260906113433 0 146 0.0 3.0 0.00 0.00 0.00 99 1020.6
20260906112929 0 89 4.0 5.0 0.00 0.00 0.00 99 1020.6
20260906112424 0 135 2.0 7.0 0.00 0.00 0.00 99 1020.7
20260906111920 0 89 3.0 4.0 0.00 0.00 0.00 99 1020.4
20260906111419 0 73 2.0 4.0 0.00 0.00 0.00 99 1020.4
20260906110914 0 25 2.0 4.0 0.00 0.00 0.00 99 1020.5
20260906110409 0 129 3.0 3.0 0.00 0.00 0.00 99 1020.5
20260906105909 0 106 2.0 4.0 0.00 0.00 0.00 99 1020.3
20260906105404 67 49 4.0 4.0 0.00 0.00 0.00 99 1020.6
20260906104900 0 95 2.0 3.0 0.00 0.00 0.00 99 1020.6
20260906104358 0 110 1.0 3.0 0.00 0.00 0.00 99 1020.6
20260906103857 67 126 3.0 4.0 0.00 0.00 0.00 99 1020.5
20260906103356 67 139 3.0 4.0 0.00 0.00 0.00 99 1020.2
20260906102852 67 110 2.0 3.0 0.00 0.00 0.00 99 1020.1
20260906102351 0 136 3.0 5.0 0.00 0.00 0.00 99 1020.0
20260906101846 66 172 2.0 6.0 0.00 0.00 0.00 99 1020.1
20260906101341 66 143 3.0 4.0 0.00 0.00 0.00 99 1019.9
20260906100837 0 142 3.0 5.0 0.00 0.00 0.00 98 1020.1
20260906100336 66 116 3.0 3.0 0.00 0.00 0.00 98 1019.9
20260906095831 0 160 2.0 3.0 0.00 0.00 0.00 98 1019.8
20260906095327 0 148 2.0 2.0 0.00 0.00 0.00 98 1019.8
20260906094826 67 140 0.0 2.0 0.00 0.00 0.00 98 1019.6
20260906094321 67 177 0.0 3.0 0.00 0.00 0.00 98 1019.8
20260906093817 67 151 2.0 2.0 0.00 0.00 0.00 98 1019.9
20260906093312 67 171 2.0 2.0 0.00 0.00 0.00 98 1019.7
20260906092802 0 185 1.0 3.0 0.00 0.00 0.00 97 1019.9
20260906092305 67 99 0.0 2.0 0.00 0.00 0.00 97 1019.8
20260906091758 0 140 0.0 2.0 0.00 0.00 0.00 97 1019.7
20260906091254 0 177 0.0 1.0 0.00 0.00 0.00 97 1019.7
20260906090750 0 146 0.0 2.0 0.00 0.00 0.00 97 1019.6
20260906090249 0 86 1.0 3.0 0.00 0.00 0.00 97 1019.6
20260906085748 0 132 5.0 5.0 0.00 0.00 0.00 97 1019.8
20260906085247 67 153 3.0 4.0 0.00 0.00 0.00 97 1019.5
20260906084743 0 183 3.0 5.0 0.00 0.00 0.00 97 1019.3
20260906084242 68 167 4.0 9.0 0.00 0.00 0.00 97 1019.3
20260906083737 0 146 4.0 7.0 0.00 0.00 0.00 97 1019.3
20260906083233 0 136 4.0 4.0 0.00 0.00 0.00 97 1019.3
20260906082728 0 189 2.0 4.0 0.00 0.00 0.00 97 1019.4
20260906082223 0 146 3.0 4.0 0.00 0.00 0.00 97 1019.6
20260906081719 0 168 2.0 3.0 0.00 0.00 0.00 97 1019.7
20260906081213 68 166 4.0 5.0 0.00 0.00 0.00 97 1019.7
20260906080710 0 166 3.0 5.0 0.00 0.00 0.00 97 1019.5
20260906080205 0 168 2.0 4.0 0.00 0.00 0.00 97 1019.5
20260906075700 68 136 3.0 4.0 0.00 0.00 0.00 97 1019.7
20260906075154 68 139 3.0 4.0 0.00 0.00 0.00 97 1019.8
20260906074650 0 137 3.0 5.0 0.00 0.00 0.00 97 1019.6
20260906074149 0 139 4.0 6.0 0.00 0.00 0.00 96 1019.9
20260906073644 0 163 5.0 7.0 0.00 0.00 0.00 96 1019.8
20260906073139 0 114 5.0 6.0 0.00 0.00 0.00 96 1019.7
20260906072634 69 146 4.0 5.0 0.00 0.00 0.00 96 1019.9
20260906072130 69 141 3.0 4.0 0.00 0.00 0.00 96 1019.8
20260906071626 69 151 3.0 4.0 0.00 0.00 0.00 95 1019.7
20260906071121 69 155 4.0 6.0 0.00 0.00 0.00 95 1019.7
20260906070617 69 166 3.0 4.0 0.00 0.00 0.00 95 1019.9
20260906070113 69 149 3.0 3.0 0.00 0.00 0.00 94 1020.1
20260906065612 69 185 2.0 3.0 0.00 0.00 0.00 94 1020.0
20260906065108 69 129 3.0 4.0 0.00 0.00 0.00 94 1020.0
20260906064603 69 115 0.0 3.0 0.00 0.00 0.00 94 1020.0
20260906064058 69 124 3.0 3.0 0.00 0.00 0.00 95 1020.2
20260906063553 69 83 2.0 2.0 0.00 0.00 0.00 95 1020.1
20260906063049 69 94 0.0 2.0 0.00 0.00 0.00 95 1020.1
20260906062545 69 89 1.0 3.0 0.00 0.00 0.00 95 1020.0
20260906062038 0 136 3.0 4.0 0.00 0.00 0.00 95 1020.0
20260906061535 69 115 2.0 4.0 0.00 0.00 0.00 94 1020.0
20260906061034 0 137 1.0 3.0 0.00 0.00 0.00 94 1020.1
20260906060531 0 143 2.0 3.0 0.00 0.00 0.00 93 1020.0
20260906060028 0 147 0.0 3.0 0.00 0.00 0.00 93 1020.2
20260906055523 70 168 2.0 3.0 0.00 0.00 0.00 93 1020.3
20260906055018 0 144 2.0 2.0 0.00 0.00 0.00 93 1020.1
20260906054518 0 160 2.0 3.0 0.00 0.00 0.00 93 1020.2
20260906054014 70 125 3.0 3.0 0.00 0.00 0.00 92 1020.2
20260906053510 71 127 3.0 3.0 0.00 0.00 0.00 92 1020.3
20260906053005 71 155 3.0 3.0 0.00 0.00 0.00 92 1020.2
20260906052501 71 179 2.0 3.0 0.00 0.00 0.00 92 1020.0
20260906051958 70 160 3.0 3.0 0.00 0.00 0.00 92 1020.0
20260906051453 71 131 1.0 3.0 0.00 0.00 0.00 92 1020.1
20260906050949 71 151 3.0 3.0 0.00 0.00 0.00 92 1020.1
20260906050448 0 159 2.0 3.0 0.00 0.00 0.00 91 1020.1
20260906045947 0 158 5.0 10.0 0.00 0.00 0.00 91 1020.1
20260906045446 0 160 5.0 5.0 0.00 0.00 0.00 91 1019.9
20260906044943 71 200 0.0 5.0 0.00 0.00 0.00 91 1020.0
20260906044438 71 166 3.0 4.0 0.00 0.00 0.00 91 1019.8
20260906043933 71 174 1.0 2.0 0.00 0.00 0.00 91 1019.7
20260906043429 71 186 1.0 2.0 0.00 0.00 0.00 91 1019.8
20260906042925 70 177 1.0 3.0 0.00 0.00 0.00 91 1019.6
20260906042424 70 166 2.0 3.0 0.00 0.00 0.00 92 1019.5
20260906041919 70 163 4.0 5.0 0.00 0.00 0.00 92 1019.9
20260906041415 71 170 3.0 4.0 0.00 0.00 0.00 91 1019.5
20260906040914 71 157 4.0 4.0 0.00 0.00 0.00 91 1019.7
20260906040410 71 167 2.0 5.0 0.00 0.00 0.00 91 1019.8
20260906035905 70 167 4.0 5.0 0.00 0.00 0.00 92 1019.7
20260906035401 70 163 3.0 5.0 0.00 0.00 0.00 92 1019.4
20260906034855 71 159 4.0 6.0 0.00 0.00 0.00 92 1019.2
20260906034350 71 186 2.0 6.0 0.00 0.00 0.00 91 1019.3
20260906033846 71 162 3.0 5.0 0.00 0.00 0.00 92 1019.5
20260906033345 71 161 4.0 4.0 0.00 0.00 0.00 91 1019.3
20260906032842 71 177 2.0 3.0 0.00 0.00 0.00 91 1019.6
20260906032337 72 163 2.0 2.0 0.00 0.00 0.00 91 1019.5
20260906031832 72 185 0.0 2.0 0.00 0.00 0.00 90 1019.6
20260906031328 72 229 0.0 1.0 0.00 0.00 0.00 90 1019.4
20260906030827 72 195 1.0 2.0 0.00 0.00 0.00 90 1019.4
20260906030323 72 200 0.0 1.0 0.00 0.00 0.00 89 1019.2
20260906025817 72 186 1.0 1.0 0.00 0.00 0.00 89 1019.6
20260906025311 72 160 2.0 2.0 0.00 0.00 0.00 89 1019.2
20260906024810 72 119 0.0 0.0 0.00 0.00 0.00 89 1019.1
20260906024309 72 134 0.0 1.0 0.00 0.00 0.00 89 1019.1
20260906023805 73 148 2.0 3.0 0.00 0.00 0.00 89 1018.9
20260906023300 73 182 1.0 3.0 0.00 0.00 0.00 89 1018.8
20260906022756 72 146 0.0 2.0 0.00 0.00 0.00 89 1018.7
20260906022251 73 141 2.0 2.0 0.00 0.00 0.00 88 1018.6
20260906021747 73 146 1.0 3.0 0.00 0.00 0.00 88 1018.4
20260906021246 73 187 3.0 3.0 0.00 0.00 0.00 87 1018.4
20260906020741 74 179 2.0 2.0 0.00 0.00 0.00 87 1018.4
20260906020241 74 160 2.0 3.0 0.00 0.00 0.00 86 1018.3
20260906015735 74 176 2.0 4.0 0.00 0.00 0.00 86 1018.3
20260906015234 74 200 1.0 2.0 0.00 0.00 0.00 86 1018.1
20260906014729 74 215 2.0 3.0 0.00 0.00 0.00 85 1017.7
20260906014224 75 193 1.0 3.0 0.00 0.00 0.00 84 1017.6
20260906013721 75 190 2.0 3.0 0.00 0.00 0.00 84 1017.5
20260906013220 75 172 3.0 5.0 0.00 0.00 0.00 84 1017.3
20260906012715 76 177 3.0 5.0 0.00 0.00 0.00 83 1017.4
20260906012210 76 145 2.0 5.0 0.00 0.00 0.00 83 1017.4
20260906011705 76 104 3.0 9.0 0.00 0.00 0.00 82 1017.4
20260906011159 76 154 4.0 7.0 0.00 0.00 0.00 82 1017.3
20260906010655 76 135 5.0 6.0 0.00 0.00 0.00 81 1017.4
20260906010152 77 139 4.0 5.0 0.00 0.00 0.00 80 1017.3
20260906005651 77 155 2.0 5.0 0.00 0.00 0.00 80 1017.3
20260906005150 77 110 2.0 6.0 0.00 0.00 0.00 79 1017.2
20260906004649 77 108 5.0 5.0 0.00 0.00 0.00 79 1017.1
20260906004144 77 130 4.0 6.0 0.00 0.00 0.00 79 1017.3
20260906003640 78 129 8.0 10.0 0.00 0.00 0.00 78 1017.2
20260906003135 78 160 3.0 6.0 0.00 0.00 0.00 78 1017.1
20260906002630 78 53 0.0 9.0 0.00 0.00 0.00 77 1017.1
20260906002125 78 131 4.0 8.0 0.00 0.00 0.00 77 1017.1
20260906001621 78 130 6.0 9.0 0.00 0.00 0.00 77 1017.1
20260906001120 79 131 6.0 9.0 0.00 0.00 0.00 76 1017.2
20260906000616 79 35 2.0 11.0 0.00 0.00 0.00 75 1017.2
20260906000111 79 110 7.0 12.0 0.00 0.00 0.00 75 1017.0
20260905235610 80 133 4.0 11.0 0.00 0.00 0.00 75 1017.1
20260905235105 80 123 4.0 10.0 0.00 0.00 0.00 75 1017.2
20260905234601 80 127 6.0 11.0 0.00 0.00 0.00 74 1017.2
20260905234056 80 129 5.0 9.0 0.00 0.00 0.00 74 1017.1
20260905233555 81 126 4.0 10.0 0.00 0.00 0.00 73 1017.4
20260905233050 81 150 3.0 10.0 0.00 0.00 0.00 73 1017.2
20260905232546 82 49 3.0 9.0 0.00 0.00 0.00 73 1017.1
20260905232042 82 127 8.0 8.0 0.00 0.00 0.00 71 1017.1
20260905231536 82 128 5.0 6.0 0.00 0.00 0.00 71 1017.1
20260905231033 82 110 5.0 9.0 0.00 0.00 0.00 71 1017.3
20260905230532 82 80 1.0 10.0 0.00 0.00 0.00 70 1016.9
20260905230031 82 40 6.0 9.0 0.00 0.00 0.00 69 1017.1
20260905225525 82 34 3.0 5.0 0.00 0.00 0.00 69 1017.2
20260905225021 82 61 8.0 11.0 0.00 0.00 0.00 70 1017.3
20260905224515 83 101 6.0 9.0 0.00 0.00 0.00 69 1017.0
20260905224014 82 136 7.0 8.0 0.00 0.00 0.00 69 1017.1
20260905223513 82 53 4.0 9.0 0.00 0.00 0.00 67 1017.5
20260905223008 83 63 4.0 7.0 0.00 0.00 0.00 67 1017.1
20260905222508 83 43 0.0 6.0 0.00 0.00 0.00 69 1017.4
20260905222003 83 124 3.0 6.0 0.00 0.00 0.00 69 1017.6
20260905221500 82 132 4.0 6.0 0.00 0.00 0.00 69 1017.4
20260905220955 83 103 1.0 5.0 0.00 0.00 0.00 69 1017.6
20260905220451 82 132 2.0 4.0 0.00 0.00 0.00 69 1017.6
20260905215950 82 240 2.0 4.0 0.00 0.00 0.00 74 1017.7
20260905215446 81 256 4.0 5.0 0.00 0.00 0.00 75 1017.5
20260905214942 82 271 2.0 4.0 0.00 0.00 0.00 75 1017.7
20260905214438 82 141 2.0 4.0 0.00 0.00 0.00 74 1017.7
20260905213937 81 125 3.0 4.0 0.00 0.00 0.00 73 1017.7
20260905213434 84 214 3.0 5.0 0.00 0.00 0.00 71 1017.7
20260905212929 84 207 1.0 4.0 0.00 0.00 0.00 71 1018.0
20260905212424 83 275 3.0 4.0 0.00 0.00 0.00 70 1018.1
20260905211923 83 359 0.0 5.0 0.00 0.00 0.00 70 1018.2
20260905211418 82 335 0.0 3.0 0.00 0.00 0.00 71 1017.9
20260905210909 83 324 3.0 5.0 0.00 0.00 0.00 71 1018.1
20260905210409 83 238 4.0 5.0 0.00 0.00 0.00 71 1018.1
20260905205908 83 290 0.0 2.0 0.00 0.00 0.00 72 1018.1
20260905205403 82 219 3.0 5.0 0.00 0.00 0.00 73 1018.3
20260905204902 82 277 4.0 5.0 0.00 0.00 0.00 74 1018.2
20260905204358 81 264 3.0 6.0 0.00 0.00 0.00 75 1018.2
20260905203857 80 6 2.0 3.0 0.00 0.00 0.00 76 1018.2
20260905203353 81 285 2.0 5.0 0.00 0.00 0.00 75 1018.3
20260905202848 81 290 0.0 2.0 0.00 0.00 0.00 74 1018.5
20260905202343 81 236 0.0 3.0 0.00 0.00 0.00 75 1018.3
20260905201839 82 237 2.0 3.0 0.00 0.00 0.00 74 1018.4
20260905201334 80 299 3.0 5.0 0.00 0.00 0.00 77 1018.6
20260905200834 79 274 7.0 9.0 0.00 0.00 0.00 79 1018.5
20260905200331 80 275 5.0 9.0 0.00 0.00 0.00 77 1018.5
20260905195828 81 247 6.0 7.0 0.00 0.00 0.00 75 1018.6
20260905195323 80 228 2.0 4.0 0.00 0.00 0.00 75 1018.7
20260905194819 80 313 3.0 6.0 0.00 0.00 0.00 75 1018.4
20260905194319 80 301 5.0 7.0 0.00 0.00 0.00 75 1018.5
20260905193818 81 295 4.0 6.0 0.00 0.00 0.00 75 1018.5
20260905193313 81 242 3.0 7.0 0.00 0.00 0.00 76 1018.3
20260905192808 0 110 2.0 2.0 0.00 0.00 0.00 77 1018.5
20260905192306 0 260 5.0 7.0 0.00 0.00 0.00 77 1018.6
20260905191803 0 295 2.0 4.0 0.00 0.00 0.00 77 1018.5
20260905191302 0 155 0.0 2.0 0.00 0.00 0.00 77 1018.5
20260905190801 78 171 2.0 4.0 0.00 0.00 0.00 78 1018.6
20260905190301 79 249 2.0 4.0 0.00 0.00 0.00 78 1018.5
20260905185759 79 128 3.0 4.0 0.00 0.00 0.00 78 1018.5
20260905185249 79 155 3.0 3.0 0.00 0.00 0.00 78 1018.3
20260905184748 78 123 1.0 7.0 0.00 0.00 0.00 79 1018.6
20260905184247 79 20 1.0 4.0 0.00 0.00 0.00 77 1018.7
20260905183741 80 223 0.0 4.0 0.00 0.00 0.00 75 1018.7
20260905183237 0 278 2.0 2.0 0.00 0.00 0.00 78 1018.5
20260905182736 0 26 1.0 5.0 0.00 0.00 0.00 78 1018.6
20260905182236 0 43 0.0 2.0 0.00 0.00 0.00 78 1018.4
20260905181732 0 144 3.0 6.0 0.00 0.00 0.00 78 1019.0
20260905181230 0 322 3.0 3.0 0.00 0.00 0.00 80 1018.8
20260905180725 0 143 2.0 3.0 0.00 0.00 0.00 80 1018.8
20260905180221 0 20 0.0 5.0 0.00 0.00 0.00 80 1019.1
20260905175720 0 88 2.0 6.0 0.00 0.00 0.00 82 1018.8
20260905175215 78 134 0.0 3.0 0.00 0.00 0.00 82 1018.9
20260905174710 79 68 2.0 5.0 0.00 0.00 0.00 80 1019.1
20260905174206 78 115 2.0 3.0 0.00 0.00 0.00 80 1019.0
20260905173702 0 299 0.0 3.0 0.00 0.00 0.00 82 1019.0
20260905173158 0 119 3.0 6.0 0.00 0.00 0.00 85 1019.1
20260905172657 0 90 6.0 7.0 0.00 0.00 0.00 85 1019.1
20260905172151 0 41 5.0 6.0 0.00 0.00 0.00 84 1019.1
20260905171647 0 160 3.0 4.0 0.00 0.00 0.00 85 1019.1
20260905171143 0 110 2.0 5.0 0.00 0.00 0.00 89 1019.2
20260905170640 0 128 4.0 8.0 0.00 0.00 0.00 89 1019.3
20260905170135 0 186 3.0 6.0 0.00 0.00 0.00 89 1019.0
20260905165635 0 127 3.0 4.0 0.00 0.00 0.00 89 1019.2
20260905165130 0 170 3.0 7.0 0.00 0.00 0.00 89 1019.3
20260905164625 0 158 3.0 6.0 0.00 0.00 0.00 89 1019.2
20260905164124 0 165 4.0 5.0 0.00 0.00 0.00 90 1019.1
20260905163620 0 208 0.0 3.0 0.00 0.00 0.00 90 1019.5
20260905163117 0 229 3.0 4.0 0.00 0.00 0.00 90 1019.4
20260905162613 0 167 3.0 5.0 0.00 0.00 0.00 90 1019.6
20260905162112 0 121 0.0 3.0 0.00 0.00 0.00 90 1019.6
20260905161612 0 138 5.0 7.0 0.00 0.00 0.00 90 1019.5
20260905161109 0 168 4.0 5.0 0.00 0.00 0.00 90 1019.1
20260905160609 0 174 4.0 7.0 0.00 0.00 0.00 90 1019.4
20260905155557 0 123 6.0 6.0 0.00 0.00 0.00 91 1019.6
20260905155056 73 140 2.0 2.0 0.00 0.00 0.00 91 1019.2
20260905154551 73 176 2.0 4.0 0.00 0.00 0.00 91 1019.5
20260905154047 73 123 4.0 4.0 0.00 0.00 0.00 91 1019.3
20260905153542 0 174 1.0 3.0 0.00 0.00 0.00 92 1019.3
20260905153043 0 101 2.0 6.0 0.00 0.00 0.00 92 1019.0
20260905152537 0 148 4.0 8.0 0.00 0.00 0.00 93 1019.2
20260905152032 0 134 4.0 6.0 0.00 0.00 0.00 93 1019.1
20260905151527 0 134 6.0 6.0 0.00 0.00 0.00 93 1019.1
20260905151022 72 46 1.0 7.0 0.00 0.00 0.00 93 1018.9
20260905150518 0 117 3.0 4.0 0.00 0.00 0.00 94 1019.0
20260905150015 0 130 5.0 7.0 0.00 0.00 0.00 94 1018.6
20260905145509 0 86 3.0 7.0 0.00 0.00 0.00 94 1018.8
20260905145009 72 144 3.0 7.0 0.00 0.00 0.00 94 1018.8
20260905144504 72 93 5.0 5.0 0.00 0.00 0.00 94 1018.8
20260905144003 73 110 4.0 5.0 0.00 0.00 0.00 93 1018.6